Flag for United Kingdom Weather past 2 weeks in Wakefield, England, United Kingdom

Now
75 °F

Sunny.


Feels Like: 78 °F
Forecast: 58 / 88 °F
Wind: 13 mph from Southeast

Location: Leeds And Bradford

Current Time: Jun 30, 2015 at 9:31:44 PM

Latest Report: Jun 30, 2015 at 8:50 PM


Visibility: 10 mi

Pressure: 30.01 "Hg

Humidity: 57%

Dew point: 59 °F

Location of WakefieldLocation

Historic Weather in Wakefield — Graph

°F

Wakefield temperature yesterday

Maximum temperature yesterday: 68 °F (at 2:50 PM)
Minimum temperature yesterday: 54 °F (at 3:20 AM)
Average temperature yesterday: 61 °F

Past Weeks' High & Low Weather Summary

 TemperatureHumidityPressure
High81 °F (Jun 30, 3:20 PM)100% (Jun 17, 6:50 AM)30.27 "Hg (Jun 17, 6:50 AM)
Low45 °F (Jun 18, 4:20 AM)46% (Jun 27, 4:20 PM)29.77 "Hg (Jun 22, 4:20 AM)
Average57 °F80%30.05 "Hg
* Reported Jun 15 8:20 PM — Jun 30 8:20 PM, Wakefield, Weather by CustomWeather, © 2015

Note: Actual official high and low records may vary slightly from our data, if they occured in-between our weather recording intervals... More about our weather records

Advertising

Wakefield weather history for previous 24 hours

 ConditionsComfort  
Time TempWeatherWind HumidityBarometerVisibility
8:20 PM
Tue, Jun 30
75 °FPassing clouds.13 mph61%30.01 "HgN/A
7:50 PM77 °FSunny.13 mph57%29.98 "Hg10 mi
7:20 PM77 °FPassing clouds.10 mph61%30.01 "HgN/A
6:50 PM79 °FPassing clouds.10 mph58%30.01 "HgN/A
5:50 PM79 °FPassing clouds.12 mph61%30.01 "HgN/A
5:20 PM79 °FPassing clouds.13 mph61%30.01 "HgN/A
4:50 PM81 °FPassing clouds.12 mph58%30.01 "HgN/A
3:50 PM81 °FPassing clouds.9 mph58%30.04 "HgN/A
3:20 PM81 °FPassing clouds.10 mph58%30.04 "HgN/A
2:50 PM79 °FPassing clouds.12 mph58%30.04 "HgN/A
1:50 PM79 °FPassing clouds.13 mph58%30.07 "HgN/A
1:20 PM77 °FPassing clouds.13 mph57%30.07 "HgN/A
12:50 PM77 °FPassing clouds.10 mph57%30.07 "HgN/A
12:20 PM75 °FPassing clouds.10 mph61%30.07 "HgN/A
11:50 AM75 °FPassing clouds.10 mph61%30.09 "HgN/A
11:20 AM75 °FPassing clouds.10 mph57%30.09 "HgN/A
10:50 AM73 °FPassing clouds.10 mph57%30.09 "HgN/A
10:20 AM70 °FPassing clouds.8 mph64%30.09 "HgN/A
9:50 AM72 °FPassing clouds.6 mph65%30.09 "HgN/A
9:20 AM70 °FPassing clouds.8 mph69%30.09 "HgN/A
8:50 AM66 °FPassing clouds.7 mph73%30.09 "HgN/A
8:20 AM64 °FSunny.7 mph78%30.09 "Hg10 mi
7:50 AM64 °FPassing clouds.6 mph78%30.09 "HgN/A
7:20 AM63 °FPassing clouds.3 mph77%30.09 "HgN/A
6:50 AM63 °FPassing clouds.3 mph77%30.09 "HgN/A
6:20 AM61 °FSunny.6 mph77%30.09 "Hg10 mi
5:50 AM59 °FSunny.3 mph82%30.09 "Hg10 mi
5:20 AM59 °FPassing clouds.5 mph77%30.09 "HgN/A
4:50 AM59 °FPassing clouds.6 mph77%30.09 "HgN/A
4:20 AM57 °FPassing clouds.6 mph82%30.09 "HgN/A
3:50 AM59 °FPassing clouds.5 mph82%30.09 "HgN/A
3:20 AM61 °FPassing clouds.8 mph72%30.09 "HgN/A
2:50 AM61 °FPassing clouds.7 mph72%30.12 "HgN/A
2:20 AM59 °FPassing clouds.7 mph77%30.12 "HgN/A
1:50 AM61 °FClear.8 mph77%30.12 "Hg10 mi
1:20 AM61 °FClear.7 mph77%30.12 "Hg10 mi
12:50 AM59 °FClear.5 mph82%30.12 "Hg10 mi
12:20 AM59 °FClear.2 mph82%30.12 "Hg10 mi
11:50 PM
Mon, Jun 29
61 °FClear.2 mph77%30.15 "Hg10 mi
11:20 PM61 °FClear.3 mph77%30.15 "Hg10 mi
10:20 PM63 °FSunny.3 mph73%30.15 "Hg10 mi
9:50 PM63 °FSunny.3 mph73%30.15 "Hg10 mi
9:20 PM63 °FSunny.3 mph73%30.15 "Hg10 mi
Weather by CustomWeather, © 2015

See weather overviewHow to use our weather pages